USA 164 (MILSTAR-2 3)

Last updated on Tue Dec 09 2025 00:02:46 GMT+0000 (Coordinated Universal Time)

1 27168U 02001A 25342.28523041 .00000095 00000+0 00000+0 0 9990 2 27168 10.9508 23.0309 0096757 2.6653 173.2528 1.00268142 31042
UTC large
Height (km)
Speed (km/s)
/
Latitude / Longitude
Inclination (degrees)
Orbital Period (minutes)
Azimuth
Elevation
Range (km)
Doppler Factor

Next 0 passes for location: London (51.5072 / 0.1276)

Sorry there are no passes over London.